Regional Weather Roundup
Issued by NWS Charleston, SC

Current Version | Previous Version | Graphics & Text | Print | Product List | Glossary On
Versions: 1 2 3 4 5 6 7 8 9 10 11 12 13 14 15 16 17 18 19 20 21 22 23 24 25 26 27 28 29 30 31 32 33 34 35 36 37 38 39 40 41 42 43 44 45 46 47 48 49 50
506
ASUS42 KCHS 280728
RWRCHS

REGIONAL WEATHER ROUNDUP
NATIONAL WEATHER SERVICE CHARLESTON SC
300 AM EDT SUN AUG 28 2016

NOTE: "FAIR" INDICATES FEW OR NO CLOUDS BELOW 12,000 FEET WITH NO
SIGNIFICANT WEATHER AND/OR OBSTRUCTIONS TO VISIBILITY.

NOT ALL STATIONS ARE QUALITY CONTROLLED. USE DATA WITH CAUTION...
ESPECIALLY DEWPOINT OBSERVATIONS.

SCZ027-030-031-034>040-042>050-280800-
...SOUTHEAST SOUTH CAROLINA...

CITY           SKY/WX    TMP DP  RH WIND       PRES   REMARKS
N CHARLESTON   PTCLDY    76  72  87 NE6       30.07F
WATERFRONT PRK   N/A     81  76  85 NE6       30.05S
MOUNT PLEASANT FAIR      75  73  94 CALM      30.07F
JOHNS ISLAND   FAIR      77  75  94 CALM      30.07S
PINOPOLIS        N/A     79  75  89 NE7       30.02S
MONCKS CORNER  FAIR      73  72  94 CALM      30.08F
SUMMERVILLE    FAIR      72  72 100 CALM      30.09F
BEAUFORT MCAS  CLEAR     77  73  87 N5        30.07R
BEAUFORT ARPT  FAIR      77  73  88 N5        30.06R
HILTON HEAD IS PTCLDY    81  73  78 VRB5      30.06S
WALTERBORO     SUNNY     73  73 100 NE3       30.09S
ALLENDALE      PTSUNNY   75  72  88 CALM      30.08S

...SOUTHERN MIDLANDS AND PEE DEE...

CITY           SKY/WX    TMP DP  RH WIND       PRES   REMARKS
GEORGETOWN     FAIR      73  72  94 N3        30.09S
KINGSTREE      PTSUNNY   73  70  88 CALM      30.10F
ORANGEBURG     PTCLDY    74  70  87 NE3       30.10F
BARNWELL       NOT AVBL
AIKEN          FAIR      72  68  88 CALM      30.14F HAZE
MANNING        FAIR      73  70  88 CALM      30.10F
COLUMBIA       PTCLDY    80  71  74 CALM      30.10F
SUMTER         CLOUDY    77  72  83 E5        30.09F
FLORENCE       CLOUDY    78  73  84 NE5       30.12S
MYRTLE BEACH   CLEAR     79  66  65 N6        30.11S
N MYRTLE BEACH CLEAR     75  73  93 NE3       30.09F

$$

GAZ063-065-086>088-099>101-113>116-118-119-134>141-150-280800-
...SOUTHEAST GEORGIA...

CITY           SKY/WX    TMP DP  RH WIND       PRES   REMARKS
SAVANNAH ARPT  MOCLDY    76  73  91 N5        30.06S
HUNTER AAF     CLEAR     78  78  99 NE5       30.03S
FORT STEWART   PTCLDY    75  73  94 CALM      30.03S FOG
STATESBORO     PTCLDY    74  73  98 CALM      30.07F
SYLVANIA       NOT AVBL
CLAXTON        FAIR      72  72 100 NE3       30.06F

...CSRA...CENTRAL AND FAR SOUTHEAST GEORGIA...

CITY           SKY/WX    TMP DP  RH WIND       PRES   REMARKS
THOMSON        CLEAR     75  72  88 MISG      30.14F
AUGUSTA-BUSH   CLOUDY    74  71  91 CALM      30.09S
AUGUSTA-DANIEL CLOUDY    81  70  69 N3        30.11S
SWAINSBORO     FAIR      73  70  88 E5        30.08S
VIDALIA        CLEAR     75  75 100 E3        30.07S
EASTMAN        FAIR      76  75  96 CALM      30.09S
HAZLEHURST     FAIR      76  76 100 CALM      30.05S
ALMA           CLEAR     75  73  93 NE3       30.04S
WAYCROSS         N/A     77  77 100 CALM      30.04S
JESUP          FAIR      75  75 100 CALM      30.04F
BAXLEY         FAIR      75  75 100 NE5       30.04F
BRUNSWICK      CLEAR     77  77 100 CALM      30.04S
SAINT SIMONS   MOCLDY    81  75  82 NE9       30.02F

$$

SCZ027-028-034-036>038-045-046-048>050-GAZ119-141-280800-
...LAKE AND SUPPLEMENTAL COASTAL OBSERVATIONS...

STATION/POSITION TIME  TEMP    WIND        PRES    WAVE   SWELL
                       AIR SEA DIR/SP/G            HT/PER HT/PER/DIR
                 (UTC) (F)     (DEG/KT/KT) (MB)    (FT/S) (FT/S/D)
WINYAH BAY       0545   79      40/  3     1018.0
LAKE MURRAY      0600   79      40/  1/  4 1019.3S
ACE BASIN NERRS  NOT AVBL
FORT PULASKI     0700   83 85   70/ 12/ 14 1017.9S
SAPELO ISLAND    0600   81      60/  5     1017.0F

$$

ANZ835-935-AMZ111-154-330-350-352-354-370-450-454-472-280800-
...C-MAN AND BUOY OBSERVATIONS...

STATION/POSITION TIME  TEMP    WIND        PRES    WAVE   SWELL
                       AIR SEA DIR/SP/G            HT/PER HT/PER/DIR
                 (UTC) (F)     (DEG/KT/KT) (MB)    (FT/S) (FT/S/D)
BUOY 41004       0650   83 84   60/ 12/ 16 1017.0F   4/ 8   3/110/ 8
BUOY 41008       0650   83 85   80/ 12/ 14 1016.5F   4/ 9   3/110/ 9
FOLLY BEACH CMAN 0700   82      60/ 11/ 12 1018.3F
CAPERS NEARSHORE 0608   83 84   90/ 10/ 14 1018.0F
FRIPP NEARSHORE  0708   83 86   90/ 12/ 16 1017.0F


STATION/POSITION TIME  TEMP    WIND        PRES    WAVE   SWELL
                       AIR SEA DIR/SP/G            HT/PER HT/PER/DIR
                 (UTC) (F)     (DEG/KT/KT) (MB)    (FT/S) (FT/S/D)
5E ST. MARYS GA  0701      85                N/A     4/ 9
FRYING PAN BUOY  0700   83 84   50/  6/  8 1018.3F
BUOY 41025       0650   76 84  340/  2/  4 1019.4F   3/ 9   3/130/ 9
CAPE LOOKOUT NC  0700   79     150/  6/  7 1018.9F
BUOY 41002       0650   83 84   60/ 10/ 12 1016.8F   4/ 7   3/120/ 7
BUOY 41010       NOT AVBL
ST AUGUSTINE FL  0700   81 84   70/ 14/ 15 1016.4F


$$




USA.gov is the U.S. government's official web portal to all federal, state and local government web resources and services.